Location: Amon Carter Post Office
(32.8281°N, 97.0484°W)
Time: 10:59:54
(UTC+00:00)

Envisat - Visible Passes

Search period start: 20 May 2022 00:00
Search period end: 30 May 2022 00:00
Orbit: 764 x 765 km, 98.2° (Epoch: 19 May)

Date Brightness Start Highest point End Pass type
(mag) Time Alt. Az. Time Alt. Az. Time Alt. Az.
20 May 4.8 10:18:38 10° NE 10:23:04 30° E 10:27:27 10° SSE visible
21 May 5.8 09:44:03 10° ENE 09:45:53 12° E 09:47:42 10° ESE visible
22 May 3.7 10:43:19 10° NNE 10:48:18 55° E 10:53:16 10° S visible
23 May 5.3 10:07:18 10° NE 10:11:15 23° E 10:15:11 10° SSE visible
25 May 4.3 10:31:44 10° NNE 10:36:32 42° E 10:41:18 10° S visible
26 May 5.6 09:56:08 10° NE 09:59:25 17° E 10:02:42 10° SE visible
28 May 4.7 10:20:14 10° NE 10:24:44 32° E 10:29:13 10° SSE visible
29 May 5.7 09:45:20 10° ENE 09:47:34 13° E 09:49:47 10° ESE visible
